Location: B?lite?ti
(46.2833°N, 22.7333°E)
Time: 16:14:38
(UTC+00:00)

Cosmos 1417 Rocket - Pass Details

Date: 24 January 2021
Orbit: 952 x 998 km, 83.0° (Epoch: 28 February)

Event Time Altitude Azimuth Distance (km) Brightness Sun altitude
Rises 17:35:05 0° 353° (N) 3,661 7.6 -22.8°
Reaches altitude 10° 17:37:36 10° 355° (N) 2,717 6.8 -23.2°
Maximum altitude 17:43:49 72° 80° (E) 1,027 4.3 -24.3°
Drops below altitude 10° 17:50:04 10° 165° (SSE) 2,730 6.7 -25.4°
Sets 17:52:36 0° 167° (SSE) 3,680 7.4 -25.8°
